TimeCST,TemperatureF,Dew PointF,Humidity,Sea Level PressureIn,VisibilityMPH,Wind Direction,Wind SpeedMPH,Gust SpeedMPH,PrecipitationIn,Events,Conditions,WindDirDegrees,DateUTC
12:15 AM,19.4,12.2,74,30.19,7.0,NW,8.1,-,N/A,Snow,Light Snow,320,2012-11-24 06:15:00
12:35 AM,19.4,12.2,74,30.19,10.0,NW,8.1,-,N/A,Snow,Light Snow,320,2012-11-24 06:35:00
12:55 AM,19.4,12.2,74,30.19,10.0,NNW,8.1,-,N/A,Snow,Light Snow,330,2012-11-24 06:55:00
1:15 AM,19.4,12.2,74,30.19,10.0,NNW,11.5,18.4,N/A,,Overcast,330,2012-11-24 07:15:00
1:35 AM,19.4,10.4,68,30.19,10.0,NW,11.5,-,N/A,Snow,Light Snow,310,2012-11-24 07:35:00
1:55 AM,17.6,10.4,73,30.19,10.0,NW,12.7,18.4,N/A,Snow,Light Snow,320,2012-11-24 07:55:00
2:15 AM,17.6,10.4,73,30.19,10.0,NW,6.9,-,N/A,Snow,Light Snow,320,2012-11-24 08:15:00
2:35 AM,17.6,10.4,73,30.19,7.0,NW,8.1,-,N/A,Snow,Light Snow,320,2012-11-24 08:35:00
2:55 AM,17.6,10.4,73,30.19,10.0,NNW,8.1,-,N/A,Snow,Light Snow,330,2012-11-24 08:55:00
3:15 AM,17.6,12.2,79,30.18,10.0,NW,8.1,-,N/A,Snow,Light Snow,320,2012-11-24 09:15:00
3:55 AM,17.6,10.4,73,30.18,10.0,NNW,8.1,-,N/A,Snow,Light Snow,340,2012-11-24 09:55:00
4:15 AM,17.6,10.4,73,30.18,10.0,NW,6.9,-,N/A,Snow,Light Snow,320,2012-11-24 10:15:00
4:35 AM,17.6,12.2,79,30.18,10.0,NNW,9.2,-,N/A,Snow,Light Snow,330,2012-11-24 10:35:00
4:55 AM,17.6,10.4,73,30.18,10.0,NW,6.9,-,N/A,Snow,Light Snow,320,2012-11-24 10:55:00
5:15 AM,17.6,10.4,73,30.18,10.0,NW,8.1,-,N/A,Snow,Light Snow,320,2012-11-24 11:15:00
5:35 AM,17.6,10.4,73,30.18,10.0,NW,5.8,-,N/A,Snow,Light Snow,320,2012-11-24 11:35:00
5:55 AM,17.6,10.4,73,30.18,10.0,NW,4.6,-,N/A,Snow,Light Snow,320,2012-11-24 11:55:00
6:35 AM,17.6,10.4,73,30.18,10.0,NW,3.5,-,N/A,Snow,Light Snow,310,2012-11-24 12:35:00
6:55 AM,17.6,10.4,73,30.18,10.0,Calm,Calm,-,N/A,Snow,Light Snow,0,2012-11-24 12:55:00
7:15 AM,17.6,10.4,73,30.17,10.0,NNW,3.5,-,N/A,Snow,Light Snow,330,2012-11-24 13:15:00
7:35 AM,17.6,10.4,73,30.17,10.0,NW,3.5,-,N/A,,Overcast,320,2012-11-24 13:35:00
7:55 AM,17.6,10.4,73,30.17,10.0,NW,8.1,-,N/A,Snow,Light Snow,310,2012-11-24 13:55:00
8:15 AM,17.6,10.4,73,30.17,10.0,Calm,Calm,-,N/A,Snow,Light Snow,0,2012-11-24 14:15:00
8:55 AM,17.6,10.4,73,30.17,10.0,North,4.6,-,N/A,Snow,Light Snow,10,2012-11-24 14:55:00
9:15 AM,17.6,10.4,73,30.16,10.0,Calm,Calm,-,N/A,,Overcast,0,2012-11-24 15:15:00
9:55 AM,17.6,10.4,73,30.16,10.0,NE,3.5,-,N/A,,Scattered Clouds,50,2012-11-24 15:55:00
10:15 AM,17.6,10.4,73,30.16,10.0,Calm,Calm,-,N/A,,Clear,0,2012-11-24 16:15:00
10:35 AM,19.4,10.4,68,30.14,10.0,Calm,Calm,-,N/A,,Clear,0,2012-11-24 16:35:00
10:55 AM,19.4,10.4,68,30.13,10.0,SW,3.5,-,N/A,,Scattered Clouds,230,2012-11-24 16:55:00
11:15 AM,19.4,12.2,74,30.12,10.0,Calm,Calm,-,N/A,,Scattered Clouds,0,2012-11-24 17:15:00
11:35 AM,19.4,12.2,74,30.11,10.0,Calm,Calm,-,N/A,,Clear,0,2012-11-24 17:35:00
11:55 AM,19.4,12.2,74,30.09,10.0,Calm,Calm,-,N/A,,Clear,0,2012-11-24 17:55:00
12:15 PM,21.2,12.2,68,30.09,10.0,Calm,Calm,-,N/A,,Clear,0,2012-11-24 18:15:00
12:35 PM,21.2,12.2,68,30.08,10.0,West,5.8,-,N/A,,Clear,260,2012-11-24 18:35:00
12:55 PM,21.2,12.2,68,30.07,10.0,SW,5.8,-,N/A,,Clear,220,2012-11-24 18:55:00
1:15 PM,21.2,12.2,68,30.05,10.0,South,4.6,-,N/A,,Clear,170,2012-11-24 19:15:00
1:35 PM,21.2,12.2,68,30.04,10.0,South,3.5,-,N/A,,Clear,180,2012-11-24 19:35:00
1:55 PM,21.2,12.2,68,30.04,10.0,Calm,Calm,-,N/A,,Clear,0,2012-11-24 19:55:00
2:15 PM,23.0,14.0,68,30.02,10.0,South,5.8,-,N/A,,Clear,180,2012-11-24 20:15:00
2:35 PM,23.0,14.0,68,30.01,10.0,SSW,3.5,-,N/A,,Clear,200,2012-11-24 20:35:00
2:55 PM,23.0,15.8,74,30.00,10.0,South,3.5,-,N/A,,Clear,190,2012-11-24 20:55:00
3:15 PM,23.0,14.0,68,30.00,10.0,South,4.6,-,N/A,,Mostly Cloudy,180,2012-11-24 21:15:00
3:35 PM,23.0,14.0,68,29.99,10.0,South,3.5,-,N/A,,Overcast,180,2012-11-24 21:35:00
3:55 PM,24.8,14.0,64,29.98,10.0,South,4.6,-,N/A,,Overcast,180,2012-11-24 21:55:00
4:15 PM,24.8,14.0,64,29.97,10.0,Calm,Calm,-,N/A,,Overcast,0,2012-11-24 22:15:00
4:35 PM,24.8,15.8,69,29.95,10.0,SE,3.5,-,N/A,,Overcast,140,2012-11-24 22:35:00
4:55 PM,24.8,15.8,69,29.95,10.0,SE,3.5,-,N/A,,Overcast,140,2012-11-24 22:55:00
5:15 PM,24.8,15.8,69,29.93,10.0,SE,3.5,-,N/A,,Mostly Cloudy,130,2012-11-24 23:15:00
5:35 PM,24.8,15.8,69,29.94,10.0,Calm,Calm,-,N/A,,Overcast,0,2012-11-24 23:35:00
5:55 PM,24.8,15.8,69,29.92,10.0,SE,4.6,-,N/A,,Overcast,140,2012-11-24 23:55:00
6:15 PM,24.8,15.8,69,29.91,10.0,SE,4.6,-,N/A,,Overcast,140,2012-11-25 00:15:00
6:35 PM,24.8,15.8,69,29.91,10.0,SE,3.5,-,N/A,,Overcast,130,2012-11-25 00:35:00
6:55 PM,24.8,15.8,69,29.91,10.0,SE,3.5,-,N/A,,Overcast,130,2012-11-25 00:55:00
7:15 PM,24.8,15.8,69,29.89,10.0,SSE,4.6,-,N/A,,Overcast,160,2012-11-25 01:15:00
7:35 PM,26.6,15.8,64,29.87,10.0,SSE,8.1,-,N/A,,Overcast,160,2012-11-25 01:35:00
7:55 PM,26.6,15.8,64,29.87,10.0,SSE,6.9,-,N/A,,Overcast,160,2012-11-25 01:55:00
8:15 PM,24.8,19.4,80,29.85,2.0,SSE,8.1,-,N/A,Snow,Light Snow,150,2012-11-25 02:15:00
8:35 PM,24.8,19.4,80,29.84,7.0,SSE,6.9,-,N/A,Snow,Light Snow,150,2012-11-25 02:35:00
8:55 PM,24.8,19.4,80,29.84,10.0,SE,4.6,-,N/A,,Overcast,140,2012-11-25 02:55:00
9:15 PM,24.8,19.4,80,29.83,10.0,SSE,4.6,-,N/A,,Overcast,150,2012-11-25 03:15:00
9:35 PM,24.8,17.6,74,29.83,10.0,SSE,3.5,-,N/A,,Overcast,150,2012-11-25 03:35:00
9:55 PM,24.8,17.6,74,29.83,10.0,SSE,3.5,-,N/A,,Overcast,160,2012-11-25 03:55:00
10:15 PM,24.8,17.6,74,29.82,5.0,SE,3.5,-,N/A,Snow,Light Snow,140,2012-11-25 04:15:00
10:35 PM,24.8,19.4,80,29.82,2.5,SE,4.6,-,N/A,Snow,Light Snow,140,2012-11-25 04:35:00
10:55 PM,24.8,21.2,86,29.81,1.5,SSE,3.5,-,N/A,Snow,Light Snow,150,2012-11-25 04:55:00
11:15 PM,24.8,21.2,86,29.80,1.0,SSE,4.6,-,N/A,Snow,Snow,160,2012-11-25 05:15:00
11:35 PM,24.8,21.2,86,29.80,1.5,South,3.5,-,N/A,Snow,Light Snow,170,2012-11-25 05:35:00
11:55 PM,24.8,21.2,86,29.78,2.0,South,5.8,-,N/A,Snow,Light Snow,170,2012-11-25 05:55:00